Jackpot Winner Domino

Jackpot hanya dapat di beli di awal sebelum periode tersebut berjalan dan jika berhasil maka anda dapat melihat di sisi kiri bawah atau kiri atas akan terdapat notifikasi bahwa jackpot anda berhasil di beli.

Jika anda membeli jackpot di tengah permainan maka pembelian jackpot akan berlaku untuk periode selanjutnya.

Ikutilah global jackpot yang tersedia di system kami, dengan system jackpot terbaru dan pertama di indonesia, anda dapat membeli jackpot dengan harga 100 rupiah saja dan menangkan hadiahnya hingga puluhan juta rupiah.

Jackpot bukanlah suatu keharusan untuk dibeli, namun kami memberikan suatu fitur tambahan untuk member tercinta dari www.jpnagapoker.asia.

Terdapat tiga pilihan harga jackpot yang bisa anda beli yaitu :100,500 dan 1000 rupiah.

Hadiah dari Multi jackpot system www.jpnagapoker.asia

  1. Murni Kecil x 50 harga jackpot yang anda beli.
      (contoH:anda membeli 1000 maka:1000 X 50 = 50.000)
  2. Murni Besar x 50 harga jackpot yang anda beli
      (contoH:anda membeli 1000 maka:1000 X 50 = 50.000)
  3. BALAK x 100 harga jackpot yang anda beli
      (contoH:anda membeli 1000 maka:1000 X 100 = 100.000)
  4. ENAM DEWA x 6666 harga jackpot yang anda beli
      (contoH:anda membeli 1000 maka:1000 X 6666 = 6.666.000)

Demikian adalah penjelasan dari Multi Jackpot www.jpnagapoker.asia terima kasih dan selamat bermain salam hoki dari kami


Note: Untuk mendapatkan jackpot di satu periode, pemain harus menyelesaikan permainan di periode tersebut, minimal 2 pemain. Jika semua pemain 'fold' jackpot tidak akan diturunkan.


Jackpot Winner

TOP ENAM DEWA
No. Tanggal Nama Price Win
1 23/05 15:44 PROJOK878 murni enam 3,333,000
2 23/05 14:24 SILITEEE murni enam 6,666,000
3 23/05 14:22 KOYOK4200 murni enam 666,600
4 23/05 13:55 WD_JP66 murni enam 6,666,000
5 23/05 12:22 METALCORE murni enam 666,600
TOP BALAK
No. Tanggal Nama Price Win
1 23/05 15:48 HEPENG87 balak 100,000
2 23/05 15:44 BENDILZ balak 100,000
3 23/05 15:40 TEBAT38 balak 100,000
4 23/05 15:37 BABAK1234 balak 100,000
5 23/05 15:36 SEMESTTA balak 100,000
LATEST JACKPOT
No. Tanggal Nama Price Win
1 23/05 15:48 HEPENG87 balak 100,000
2 23/05 15:47 BEWWWBEWWW murni kecil 25,000
3 23/05 15:47 WAHYUDI788 murni kecil 50,000
4 23/05 15:47 JIHAN1897 murni kecil 50,000
5 23/05 15:46 PENEGAK99 murni besar 50,000
6 23/05 15:46 J4CK_J4CK murni besar 50,000
7 23/05 15:46 AMIK11 lucky99 10,000
8 23/05 15:45 DOAKAMPUNG murni kecil 5,000
9 23/05 15:44 GEOGLE99 murni kecil 25,000
10 23/05 15:44 BENDILZ balak 100,000
11 23/05 15:44 RYFQO25 murni kecil 5,000
12 23/05 15:44 PROJOK878 murni enam 3,333,000
13 23/05 15:43 99HENDRIKU murni besar 50,000
14 23/05 15:43 JUPLE17 murni kecil 5,000
15 23/05 15:43 M4KCIK82 murni besar 50,000
16 23/05 15:43 TASS069 murni besar 25,000
17 23/05 15:43 MAMAN324 murni kecil 25,000
18 23/05 15:41 DEENS66 murni kecil 50,000
19 23/05 15:41 CIPTO69 murni besar 25,000
20 23/05 15:41 QQSTRON murni kecil 50,000
21 23/05 15:40 HANIFAH22 murni besar 50,000
22 23/05 15:40 TEBAT38 balak 100,000
23 23/05 15:40 BAHYU92 murni besar 50,000
24 23/05 15:40 CUPANK_96 murni kecil 50,000
25 23/05 15:39 BATAXXX murni kecil 50,000
26 23/05 15:39 RX19 murni besar 25,000
27 23/05 15:38 MBLUNAT lucky99 25,000
28 23/05 15:38 MELLYA007 murni kecil 50,000
29 23/05 15:38 BLUEDEVIL8 murni besar 50,000
30 23/05 15:38 SUPERIOR45 murni besar 50,000
31 23/05 15:38 AKHLISZR murni besar 50,000
32 23/05 15:38 TEMPUR485 murni kecil 25,000
33 23/05 15:37 QQSTRON murni kecil 50,000
34 23/05 15:37 ANDREE512 murni besar 5,000
35 23/05 15:37 BABAK1234 balak 100,000
36 23/05 15:36 Y4TPJNW9F0 murni kecil 50,000
37 23/05 15:36 A10FBD70 murni kecil 5,000
38 23/05 15:36 SEMESTTA balak 100,000
39 23/05 15:36 6666THOR murni besar 50,000
40 23/05 15:36 UB33XX murni kecil 5,000
41 23/05 15:35 BOIX_88 murni besar 5,000
42 23/05 15:35 ELMAN3 murni kecil 25,000
43 23/05 15:35 UTIN82 balak 50,000
44 23/05 15:35 MERPATITRI murni besar 5,000
45 23/05 15:35 MUHAMADISA murni kecil 50,000
46 23/05 15:34 YOPKUNDU balak 10,000
47 23/05 15:34 GODRES27 balak 100,000
48 23/05 15:34 R39122ZZ balak 50,000
49 23/05 15:34 GUS13 murni besar 50,000
50 23/05 15:34 JAMBRONGQ9 balak 100,000